This demonstration page uses our WeatherBlox Daily Observations layout. Learn more.

39.01783, -85.05884

Hourly Observations for September 15, 2019

Temp ( °F °C ) Dew Point ( °F °C ) Humidity (%) Winds ( mph kmh ) Pressure ( in mb ) Visibility ( mi km ) Precip ( " mm )
12:52 am 00:52 Clear 64 17.8 55 12.8 73 73 Calm 30.18 1022 10 16.09344 0 0
1:52 am 01:52 Clear 64 17.8 54 12.2 70 70 Calm 30.21 1023 10 16.09344 0 0
2:52 am 02:52 Mostly Clear 61 16.1 54 12.2 78 78 S 3 6 30.18 1022 10 16.09344 0 0
3:52 am 03:52 Clear 59 15 55 12.8 87 87 S 5 7 30.18 1022 10 16.09344 0 0
4:52 am 04:52 Clear 62 16.7 54 12.2 75 75 S 3 6 30.15 1021 10 16.09344 0 0
5:52 am 05:52 Mostly Cloudy 62 16.7 53 11.7 73 73 S 5 7 30.15 1021 10 16.09344 0 0
6:52 am 06:52 Partly Cloudy 63 17.2 52 11.1 68 68 Calm 30.15 1021 10 16.09344 0 0
7:52 am 07:52 Partly Cloudy 62 16.7 53 11.7 73 73 S 6 9 30.18 1022 10 16.09344 0 0
8:52 am 08:52 Partly Cloudy 68 20 55 12.8 63 63 S 6 9 30.18 1022 10 16.09344 0 0
9:52 am 09:52 Partly Cloudy 74 23.3 53 11.7 48 48 SSE 12 19 30.18 1022 10 16.09344 0 0
10:52 am 10:52 Partly Cloudy 77 25 52 11.1 42 42 SSE 13 20 30.18 1022 10 16.09344 0 0
11:52 am 11:52 Mostly Cloudy 79 26.1 53 11.7 41 41 SSE 10 17 30.15 1021 10 16.09344 0 0
12:52 pm 12:52 Mostly Cloudy 81 27.2 54 12.2 39 39 S 8 13 30.15 1021 10 16.09344 0 0
1:52 pm 13:52 Mostly Cloudy 85 29.4 51 10.6 31 31 S 6 9 30.12 1020 10 16.09344 0 0
2:52 pm 14:52 Mostly Cloudy 86 30 49 9.4 28 28 Calm 30.09 1019 10 16.09344 0 0
3:52 pm 15:52 Mostly Cloudy 86 30 49 9.4 28 28 VRB 5 7 30.06 1018 10 16.09344 0 0
4:52 pm 16:52 Mostly Cloudy 87 30.6 49 9.4 27 27 VRB 5 7 30.06 1018 10 16.09344 0 0
5:52 pm 17:52 Partly Cloudy 86 30 49 9.4 28 28 SSW 6 9 30.06 1018 10 16.09344 0 0
6:52 pm 18:52 Mostly Cloudy 83 28.3 50 10 32 32 S 7 11 30.03 1017 10 16.09344 0 0
7:52 pm 19:52 Partly Cloudy 79 26.1 53 11.7 41 41 SSE 6 9 30.03 1017 10 16.09344 0 0
8:52 pm 20:52 Partly Cloudy 79 26 54 12 42 42 S 5 7 30.06 1018 10 16.09344 0 0
9:52 pm 21:52 Mostly Cloudy 79 26 54 12 42 42 SSE 3 6 30.06 1018 10 16.09344 0 0
10:52 pm 22:52 Mostly Cloudy 77 25 54 12.2 45 45 S 3 6 30.06 1018 10 16.09344 0 0
11:52 pm 23:52 Mostly Cloudy 71 21.7 56 13.3 59 59 S 6 9 30.06 1018 10 16.09344 0 0

Powered by AerisWeather